www.pogodaiklimat.ru

Погода и климат >> Архив погоды >> Индонезия >> Санана


ПОГОДА на Санане

  • Прогноз погоды на Санане
  • Монитор погоды на Санане

АРХИВ ПОГОДЫ на Санане

Время (UTC), дата Ветер
(напр.,м/с)
 
Видим.   Явления Облачность Т
(С)
Тd
(С)
f
(%)
Тe
(С)
Тes
(С)
Комфортность P
(гПа)
Po
(гПа)
Тmin
(С)
Tmax
(С)
R
(мм)
R24
(мм)
S
(см)
03 18.06 СВ 1 10 км 5/3 540 м
[Cu med, cong Ac trans Ci fib]
+30.2 +23.2 66 +40 +53 опасность
солнечного
удара
1010.9 1010.7
06 18.06 С 2 8000 м осадки на расстоянии 9/5 500 м
[Cb cap Ac trans Ci fib]
+29.6 +25.6 79 +44 +47 опасность
перегрева
1009.6 1009.3
09 18.06 З 2 7000 м слаб. дождь 9/5 500 м
[Cb cap As op Ci fib]
+28.2 +25.0 83 +41 +41 опасность
перегрева
1009.5 1009.3 0.0
12 18.06 С 1 8000 м 8/4 570 м
[Cu med, cong Ac trans Ci fib]
+26.2 +24.7 91 +37 +37 очень
душно
1011.0 1010.8 +30.8 4
15 18.06 штиль 0 9000 м 8/5 540 м
[Cu med, cong Ac trans Ci fib]
+25.6 +24.4 93 +36 +36 очень
душно
1011.5 1011.2
18 18.06 З 1 8000 м осадки на расстоянии 9/5 480 м
[Cb cap Ac As Ci fib]
+25.0 +23.7 93 +34 +34 очень
душно
1010.1 1009.9 0.7
00 19.06 штиль 0 8000 м 8/4 540 м
[Cu med, cong Ac trans Ci fib]
+26.6 +24.2 87 +37 +40 очень
душно
1011.0 1010.8 0.0 4
03 19.06 Ю 1 9000 м 8/4 540 м
[Cu med, cong Ac trans Ci fib]
+29.6 +24.4 74 +42 +50 опасность
перегрева
1010.4 1010.2
06 19.06 В 2 8000 м 8/4 540 м
[Cu med, cong Ac trans Ci fib]
+29.8 +24.0 71 +41 +46 опасность
перегрева
1008.8 1008.5
09 19.06 В 2 8000 м в посл. час дождь 9/5 480 м
[Cb cap Ac As Ci fib]
+28.4 +24.9 81 +41 +41 опасность
перегрева
1008.6 1008.3 0.0
12 19.06 В 2 8000 м осадки на расстоянии 9/5 480 м
[Cb cap Ac As Ci fib]
+27.8 +24.6 83 +39 +39 очень
душно
1010.3 1010.1 +30.8 0.0
15 19.06 В 3 10 км 4/3 570 м
[Cu hum Ac trans Ci fib]
+27.6 +23.2 77 +37 +37 очень
душно
1010.3 1010.1
18 19.06 В 3 10 км 4/3 600 м
[Cu med, cong Ac trans Ci fib]
+27.2 +23.0 78 +36 +36 очень
душно
1009.3 1009.1
00 20.06 СВ 1 10 км 4/1 600 м
[Cu hum Ac trans Ci fib]
+28.8 +23.2 72 +39 +45 очень
душно
1011.0 1010.8 0.0
03 20.06 В 2 7000 м осадки на расстоянии 9/5 480 м
[Cb cap As op Ci fib]
+28.8 +23.5 73 +39 +44 очень
душно
1011.1 1010.8
06 20.06 В 2 9000 м 6/4 540 м
[Cu med, cong Ac trans Ci fib]
+31.0 +23.8 66 +43 +48 опасность
перегрева
1009.3 1009.1
09 20.06 штиль 0 9000 м 5/3 570 м
[Cu hum Ac trans Ci fib]
+29.4 +23.9 72 +40 +41 очень
душно
1009.3 1009.1
12 20.06 СЗ 1 9000 м 5/3 570 м
[Cu hum Ac trans Ci fib]
+26.4 +23.4 84 +36 +36 очень
душно
1011.3 1011.1 +31.0
15 20.06 З 1 8000 м 6/4 570 м
[Cu med, cong Ac trans Ci fib]
+25.6 +23.5 88 +35 +35 очень
душно
1011.7 1011.5
18 20.06 ЮЗ 1 9000 м 5/3 570 м
[Cu med, cong Ac trans Ci fib]
+24.8 +22.9 89 +33 +33 очень
душно
1010.5 1010.3
00 21.06 В 2 10 км 5/3 570 м
[Cu med, cong Ac trans Ci fib]
+28.4 +24.6 80 +40 +44 очень
душно
1011.1 1010.9 0.0
03 21.06 В 2 10 км 4/1 540 м
[Cu hum Ac trans Ci fib]
+30.8 +23.3 64 +41 +54 опасность
перегрева
1010.1 1009.9
06 21.06 штиль 0 10 км 4/1 570 м
[Cu med, cong Ac trans Ci fib]
+30.8 +23.6 66 +42 +54 опасность
перегрева
1007.9 1007.7
09 21.06 В 2 10 км 5/3 570 м
[Cu med, cong Ac trans Ci fib]
+29.2 +24.0 74 +41 +41 опасность
перегрева
1008.7 1008.5
12 21.06 В 2 9000 м 6/4 570 м
[Cu med, cong Ac trans Ci fib]
+28.2 +24.1 78 +39 +39 очень
душно
1010.8 1010.6 +31.4
15 21.06 В 1 9000 м 6/4 570 м
[Cu med, cong Ac trans Ci fib]
+27.6 +23.8 80 +38 +38 очень
душно
1011.1 1010.9
18 21.06 В 2 9000 м 6/4 570 м
[Cu med, cong Ac trans Ci fib]
+27.4 +23.3 78 +37 +37 очень
душно
1010.0 1009.7
00 22.06 В 4 9000 м 6/4 570 м
[Cu med, cong Ac trans Ci fib]
+29.4 +24.2 74 +41 +43 опасность
перегрева
1010.4 1010.2
03 22.06 В 2 10 км 5/3 570 м
[Cu med, cong Ac trans Ci fib]
+30.0 +23.3 67 +40 +52 опасность
солнечного
удара
1010.1 1009.9
06 22.06 В 4 10 км 5/3 570 м
[Cu med, cong Ac trans Ci fib]
+30.6 +23.3 65 +41 +46 опасность
перегрева
1007.9 1007.7
09 22.06 В 2 10 км 6/4 570 м
[Cu med, cong Ac trans Ci fib]
+29.4 +23.3 70 +40 +40 очень
душно
1008.3 1008.1
12 22.06 В 3 10 км 6/4 570 м
[Cu med, cong Ac trans Ci fib]
+28.2 +23.5 76 +38 +38 очень
душно
1010.3 1010.1 +30.8
15 22.06 СВ 4 9000 м 8/4 570 м
[Cu med, cong Ac trans Ci fib]
+27.8 +24.0 80 +39 +39 очень
душно
1010.4 1010.2
18 22.06 ЮВ 5 9000 м 8/4 570 м
[Cu med, cong Ac trans Ci fib]
+27.6 +22.5 74 +36 +36 очень
душно
1009.5 1009.3
00 23.06 штиль 0 10 км 4/3 570 м
[Cu hum Ac trans Ci fib]
+28.2 +23.2 74 +38 +43 очень
душно
1011.2 1011.0 0.0
03 23.06 В 3 10 км 4/3 570 м
[Cu hum Ac trans Ci fib]
+30.4 +23.7 67 +41 +52 опасность
перегрева
1010.7 1010.5
06 23.06 В 2 10 км 4/3 570 м
[Cu hum Ac trans Ci fib]
+31.0 +22.8 62 +41 +49 опасность
перегрева
1008.9 1008.6
09 23.06 штиль 0 9000 м 8/3 570 м
[Cu med, cong Ac As Ci fib]
+29.6 +22.9 67 +39 +39 очень
душно
1009.5 1009.3
12 23.06 Ю 1 9000 м 9/4 570 м
[Cu med, cong Ac As Ci fib]
+27.6 +24.4 83 +39 +39 очень
душно
1011.2 1011.0 +31.4
15 23.06 З 1 8000 м 9/4 570 м
[Cu med, cong Ac As Ci fib]
+26.0 +23.9 88 +36 +36 очень
душно
1011.5 1011.3
18 23.06 З 1 8000 м 8/4 570 м
[Cu med, cong Ac trans Ci fib]
+25.4 +23.6 90 +35 +35 очень
душно
1011.1 1010.9
00 24.06 ЮВ 2 8000 м осадки на расстоянии 9/5 500 м
[Cb cap Ac trans Ci fib]
+28.6 +24.2 77 +40 +42 очень
душно
1012.7 1012.5 0.0
03 24.06 СВ 1 8000 м осадки на расстоянии 9/5 500 м
[Cb cap Ac trans Ci fib]
+28.8 +24.1 76 +40 +46 очень
душно
1012.5 1012.3
06 24.06 штиль 0 9000 м 9/4 570 м
[Cu med, cong Ac trans Ci fib]
+27.6 +23.8 80 +38 +44 очень
душно
1010.8 1010.5
09 24.06 Ю 3 8000 м {дождь} 9/5 500 м
[Cb cap Ac trans Ci fib]
+28.0 +24.5 81 +39 +40 очень
душно
1010.8 1010.6 0.5
12 24.06 ЮВ 2 8000 м 9/4 570 м
[Cu med, cong Ac trans Ci fib]
+27.4 +24.2 83 +38 +38 очень
душно
1012.6 1012.4 +29.2 0.5
15 24.06 ЮВ 2 8000 м 9/4 570 м
[Cu med, cong Ac trans Ci fib]
+27.4 +24.2 83 +38 +38 очень
душно
1013.0 1012.8
18 24.06 СВ 2 9000 м 8/5 570 м
[Cu med, cong Ac trans Ci fib]
+27.0 +23.4 81 +37 +37 очень
душно
1011.7 1011.5
00 25.06 штиль 0 9000 м 8/4 570 м
[Cu med, cong Ac trans Ci fib]
+29.0 +24.7 78 +41 +45 опасность
перегрева
1013.3 1013.1 0.0

 

Местоположение метеостанции Санана (Индонезия): широта -2.08 долгота 126.00 высота над уровнем моря 2 м.

В архиве по умолчанию представлена погода на Санане за последнюю неделю. Архивные данные за месяц целиком и за предыдущие месяцы, начиная с января 2011 года, Вы можете получить, выбрав интересующий диапазон дат из раскрывающегося списка и нажав кнопку "Ввод!".


*Определитесь, кто Вы:
робот инопланетянин человек

Внимание! Время в таблицах - всемирное. Для получения местного времени необходимо прибавить поправку, которая равна 9 ч.

Смотрите также архив погоды в соседних городах и на ближайших метеорологических станциях:

Погода в Тауне (Индонезия) (177 км)
Погода в Намлеа (Индонезия) (177 км)
Погода в Лабухе (Индонезия) (232 км)
Погода в Амбоне (Индонезия) (293 км)
Погода в Амахаи (Индонезия) (350 км)
Погода в Тернате (Индонезия) (351 км)
Погода в Лувуке (Индонезия) (381 км)
Погода в Битунге (Индонезия) (401 км)
Погода в Менадо (Индонезия) (419 км)
Погода в Горонтало (Индонезия) (436 км)

Пояснения к столбцам:

Ветер - указаны скорость ветра в м/с - средняя за 10 мин, порывы в срок и между сроками (в фигурных скобках) и направление, откуда дует ветер: С - северный, СВ - северо-восточный, В - восточный, ЮВ - юго-восточный, Ю - южный, ЮЗ - юго-западный, З - западный, СЗ - северо-западный.
Видимость - горизонтальная дальность видимости в метрах или километрах. При видимости от 1 до 10 км при отсутствии осадков обычно наблюдается дымка, при ухудшении видимости до 1 км и менее - туман. В сухую погоду видимость может ухудшаться дымом, пылью или мглою.
Явления - указаны атмосферные явления, наблюдавшиеся в срок или в последний час перед сроком; фигурными скобками обозначены явления, наблюдавшиеся между сроками (за 1-3 часа до срока); квадратными скобками обозначены град или гололедные отложения с указанием их диаметра в мм.
Облачность - указаны через наклонную черту общая и нижняя облачность в баллах и высота нижней границы облаков в метрах; квадратными скобками обозначены формы облаков: Ci - перистые, Cs - перисто-слоистые, Cc - перисто-кучевые, Ac - высококучевые, As - высокослоистые, Sc - слоисто-кучевые, Ns - слоисто-дождевые, Cu - кучевые, Cb - кучево-дождевые. Подробнее классификацию облаков см. в Атласе облаков (PDF).
T - Температура воздуха - температура, измеренная на высоте 2 м над землей.
Td - Температура точки росы - температура, при понижении до которой содержащийся в воздухе водяной пар достигнет насыщения.
f - Относительная влажность воздуха - влажноcть воздуха, измеренная на высоте 2 м над землей.
Te - Эффективная температура - температура, которую ощущает одетый по сезону человек в тени. Характеристика душности погоды. При расчете учитывается влияние влажности воздуха и скорости ветра на теплоощущения человека.
Tes - Эффективная температура на солнце - температура, которую ощущает человек, с поправкой на солнечный нагрев. Характеристика знойности погоды. Зависит от высоты солнца над горизонтом, облачности и скорости ветра. Ночью, в пасмурную погоду, а также при ветре 12 м/с и более поправка равна нулю.
P - Атмосферное давление - приведенное к уровню моря атмосферное давление.
Po - Атмосферное давление - измеренное на уровне метеостанции атмосферное давление.
Tmin - Минимальная температура - минимум температуры воздуха на высоте 2 м над землей.
Tmax - Максимальная температура - максимум температуры воздуха на высоте 2 м над землей.
R - Количество осадков - Количество выпавших осадков за период времени, мм. При наведении курсора мыши на число - период времени, за который выпало указанное количество осадков.
R24 - Количество осадков - Количество выпавших осадков за 24 часа, мм.
S - Снежный покров - Высота снежного покрова, см. При наведении курсора мыши на число - состояние снежного покрова и степень покрытия местности в баллах.